This demonstration page uses our WeatherBlox Daily Observations layout. Learn more.

Left ArrowRight Arrow

31.84235, -102.49876

Hourly Observations for May 22, 2021

Temp ( °F °C ) Dew Point ( °F °C ) Humidity (%) Winds ( mph kmh ) Pressure ( in mb ) Visibility ( mi km ) Precip ( " mm )
12:53 am 00:53 Clear 73 22.8 57 13.9 57 57 SSE 21 33 29.93 1014 10 16 0.00 0.00
1:53 am 01:53 Clear 72 22.2 57 13.9 59 59 SE 16 26 29.93 1013 10 16 0.00 0.00
2:53 am 02:53 Clear 70 21.1 55 12.8 59 59 SSE 17 28 29.92 1013 10 16 0.00 0.00
3:53 am 03:53 Clear 68 20 57 13.9 68 68 SE 16 26 29.92 1013 10 16 0.00 0.00
4:30 am 04:30 Mostly Cloudy 69 20.6 58 14.4 68 68 SSE 14 22 29.95 1014 10 16 0.00 0.00
4:53 am 04:53 Cloudy 69 20.6 59 15 70 70 SSE 15 24 29.95 1014 10 16 0.00 0.00
5:53 am 05:53 Cloudy 69 20.6 60 15.6 73 73 SE 20 31 29.94 1014 10 16 0.00 0.00
6:53 am 06:53 Cloudy 68 20 60 15.6 76 76 SE 22 35 29.97 1015 10 16 0.00 0.00
7:53 am 07:53 Cloudy 67 19.4 60 15.6 79 79 SE 20 31 29.99 1016 10 16 0.00 0.00
8:53 am 08:53 Cloudy 68 20 60 15.6 76 76 SE 18 30 30.01 1016 10 16 0.00 0.00
9:53 am 09:53 Cloudy 70 21.1 59 15 68 68 SSE 15 24 30.03 1017 10 16 0.00 0.00
10:53 am 10:53 Cloudy 72 22.2 60 15.6 66 66 SE 15 24 30.04 1017 10 16 0.00 0.00
11:53 am 11:53 Mostly Cloudy 74 23.3 59 15 60 60 SSE 18 30 30.04 1017 10 16 0.00 0.00
12:53 pm 12:53 Mostly Sunny 77 25 59 15 54 54 SSE 18 30 30.01 1016 10 16 0.00 0.00
1:53 pm 13:53 Mostly Sunny 80 26.7 57 13.9 45 45 SE 14 22 30.00 1016 10 16 0.00 0.00
2:53 pm 14:53 Sunny 80 26.7 55 12.8 42 42 SE 21 33 29.98 1015 10 16 0.00 0.00
3:53 pm 15:53 Sunny 84 28.9 54 12.2 36 36 SE 18 30 29.96 1014 10 16 0.00 0.00
4:53 pm 16:53 Sunny 86 30 56 13.3 36 36 ESE 15 24 29.93 1013 10 16 0.00 0.00
5:53 pm 17:53 Mostly Sunny 85 29.4 55 12.8 36 36 ESE 20 31 29.91 1013 10 16 0.00 0.00
6:53 pm 18:53 Sunny 84 28.9 54 12.2 36 36 SE 23 37 29.89 1012 10 16 0.00 0.00
7:53 pm 19:53 Sunny 80 26.7 59 15 49 49 ESE 20 31 29.93 1014 10 16 0.00 0.00
8:53 pm 20:53 Clear 77 25 60 15.6 56 56 ESE 22 35 29.92 1013 10 16 0.00 0.00
9:53 pm 21:53 Clear 74 23.3 62 16.7 67 67 ESE 18 30 29.96 1015 10 16 0.00 0.00
10:53 pm 22:53 Clear 72 22.2 62 16.7 71 71 ESE 21 33 29.98 1015 10 16 0.00 0.00
11:53 pm 23:53 Clear 70 21.1 62 16.7 76 76 ESE 20 31 30.00 1016 10 16 0.00 0.00

Powered by AerisWeather